Tracking 31028 objects as of 17-Jul-2025
HD Live streaming from Space Station
objects crossing your sky now

STARLINK-5502

Track STARLINK-5502 now!
10-day predictions
STARLINK-5502 is classified as:


NORAD ID: 55644
Int'l Code: 2023-021S
Perigee: 577.6 km
Apogee: 580.8 km
Inclination: 70.0 °
Period: 96.1 minutes
Semi major axis: 6950 km
RCS: Unknown
Launch date: February 17, 2023
Source: United States (US)
Launch site: AIR FORCE WESTERN TEST RANGE (AFWTR)
Your satellite tracking list
Your tracking list is empty




NASA's NSSDC Master Catalog

Two Line Element Set (TLE):
1 55644U 23021S   25197.91857945 -.00000736  00000-0 -53890-4 0  9991
2 55644  69.9997  58.9809 0002330 236.9079 123.1857 14.98321644133475
Source of the keplerian elements: AFSPC